• MPC Preparation (Info)

  • MPEC 2016-O212: 2014 JS80

    The following Minor Planet Electronic Circular may be linked-to from your own Web pages, but must not otherwise be redistributed electronically.

    A form allowing access to any MPEC is at the bottom of this page.


    Read MPEC 2016-O211 Read MPEC 2016-O213


    M.P.E.C. 2016-O212                               Issued 2016 July 17, 17:06 UT
    
         The Minor Planet Electronic Circulars contain information on unusual
             minor planets and routine data on comets.  They are published
        on behalf of Division F of the International Astronomical Union by the
              Minor Planet Center, Smithsonian Astrophysical Observatory,
                              Cambridge, MA 02138, U.S.A.
    
                 Prepared using the Tamkin Foundation Computer Network
    
                                  MPC@CFA.HARVARD.EDU
                URL https://www.minorplanetcenter.net/    ISSN 1523-6714
    
                                       2014 JS80
    
    Observations:
         K14J80S  C2013 07 08.44100 19 33 51.382-17 52 52.48         21.7 wLEO212F51
         K14J80S  C2013 07 08.45434 19 33 51.305-17 52 52.54         21.9 wLEO212F51
         K14J80S  C2013 07 08.46833 19 33 51.230-17 52 52.78         21.6 wLEO212F51
         K14J80S* C2014 05 06.55464 19 44 08.371-17 51 26.24         22.1 wLEO212F51
         K14J80S  C2014 05 06.56558 19 44 08.355-17 51 26.22         22.0 wLEO212F51
         K14J80S  C2014 05 06.57652 19 44 08.344-17 51 26.27         22.0 wLEO212F51
         K14J80S  C2014 05 06.58747 19 44 08.325-17 51 26.26         22.1 wLEO212F51
         K14J80S  C2014 07 01.46351 19 41 01.594-17 59 43.72         21.9 wLEO212F51
         K14J80S  C2014 07 01.47713 19 41 01.531-17 59 43.86         21.8 wLEO212F51
         K14J80S  C2014 07 01.49073 19 41 01.454-17 59 44.05         21.9 wLEO212F51
         K14J80S  C2014 07 01.50436 19 41 01.394-17 59 44.20         21.9 wLEO212F51
         K14J80S  C2014 08 14.31174 19 37 26.652-18 11 45.97         21.6 iLEO212F51
         K14J80S  C2014 08 14.32308 19 37 26.605-18 11 46.20         21.2 iLEO212F51
         K14J80S  C2014 08 14.33442 19 37 26.544-18 11 46.25         21.1 iLEO212F51
         K14J80S  C2014 08 14.34581 19 37 26.497-18 11 46.60         21.3 iLEO212F51
         K14J80S  C2014 08 15.31519 19 37 22.330-18 12 02.71         20.9 iLEO212F51
         K14J80S  C2014 08 15.32654 19 37 22.290-18 12 02.98         21.1 iLEO212F51
         K14J80S  C2014 08 15.33786 19 37 22.235-18 12 03.04         21.0 iLEO212F51
         K14J80S  C2014 08 15.34925 19 37 22.182-18 12 03.34         21.0 iLEO212F51
         K14J80S  C2014 08 28.30141 19 36 31.973-18 15 32.99         21.6 wLEO212F51
         K14J80S  C2014 08 28.31280 19 36 31.930-18 15 33.20         21.7 wLEO212F51
         K14J80S  C2014 08 28.32417 19 36 31.885-18 15 33.30         21.6 wLEO212F51
         K14J80S  C2014 08 28.33554 19 36 31.844-18 15 33.66         21.9 wLEO212F51
         K14J80S  C2015 05 19.52890 19 50 17.178-17 59 32.74         21.9 wLEO212F51
         K14J80S  C2015 05 19.54024 19 50 17.154-17 59 32.78         21.9 wLEO212F51
         K14J80S  C2015 05 19.55160 19 50 17.123-17 59 32.88         22.0 wLEO212F51
         K14J80S  C2015 05 19.56295 19 50 17.124-17 59 32.84         21.9 wLEO212F51
         K14J80S  C2015 05 21.54019 19 50 12.672-17 59 45.04         21.8 wLEO212F51
         K14J80S  C2015 05 21.55192 19 50 12.658-17 59 45.01         21.9 wLEO212F51
         K14J80S  C2015 05 21.56368 19 50 12.619-17 59 45.06         21.7 wLEO212F51
         K14J80S  C2015 05 21.57544 19 50 12.589-17 59 45.13         21.7 wLEO212F51
         K14J80S  C2015 07 07.42720 19 47 08.522-18 09 00.30         21.3 iLEO212F51
         K14J80S  C2015 07 07.43910 19 47 08.475-18 09 00.66         21.0 iLEO212F51
         K14J80S  C2015 07 07.44921 19 47 08.401-18 09 00.66         21.3 iLEO212F51
         K14J80S  C2015 07 07.46111 19 47 08.351-18 09 00.87         20.9 iLEO212F51
    
    Observer details:
    F51 Pan-STARRS 1, Haleakala.  Observers B. Gibson, T. Goggia, N. Primak,
        A. Schultz, M. Willman.  Measurers K. Chambers, S. Chastel, Y.-T. Chen,
        L. Denneau, H. Flewelling, M. Holman, M. Huber, R. Jedicke, M. Lackner,
        E. Lilly, H.-W. Lin, E. Magnier, M. Micheli, M. Payne, P. Veres,
        R. Wainscoat, C. Waters, R. Weryk.  1.8-m Ritchey-Chretien + CCD.
    
    Orbital elements:
    2014 JS80
    Epoch 2016 July 31.0 TT = JDT 2457600.5                 MPC
    M 357.16416              (2000.0)            P               Q
    n   0.00296067     Peri.  174.52596     +0.50890457     +0.83454255
    a  48.0333390      Node   125.88743     -0.79934669     +0.54913559
    e   0.1669802      Incl.   15.10200     -0.31946988     -0.04459639
    P 333              H    5.5           G   0.15           U   3
    Residuals in seconds of arc
    130708 F51  0.1+  0.1-    140814 F51  0.1+  0.1-    150519 F51  0.0   0.0
    130708 F51  0.0   0.1+    140814 F51  0.0   0.0     150519 F51  0.1-  0.0
    130708 F51  0.1-  0.0     140814 F51  0.0   0.1-    150519 F51  0.3+  0.1+
    140506 F51  0.0   0.1+    140815 F51  0.1-  0.0     150521 F51  0.1-  0.2-
    140506 F51  0.0   0.1+    140815 F51  0.1+  0.1-    150521 F51  0.1+  0.1-
    140506 F51  0.0   0.1+    140815 F51  0.0   0.0     150521 F51  0.0   0.0
    140506 F51  0.1-  0.1+    140815 F51  0.1-  0.1-    150521 F51  0.0   0.0
    140701 F51  0.0   0.1-    140828 F51  0.1+  0.0     150707 F51  0.0   0.1+
    140701 F51  0.0   0.0     140828 F51  0.0   0.0     150707 F51  0.2+  0.1-
    140701 F51  0.1-  0.0     140828 F51  0.0   0.1+    150707 F51  0.2-  0.1+
    140701 F51  0.0   0.0     140828 F51  0.1-  0.1-    150707 F51  0.0   0.1+
    140814 F51  0.1+  0.1-    150519 F51  0.1-  0.0
    
    Ephemeris:
    2014 JS80                a,e,i = 48.03, 0.17, 15                 q = 40.013
    Date    TT    R. A. (2000) Decl.     Delta      r     Elong.  Phase     V
    2016 06 17    19 55 15.8 -18 10 58  39.1572 40.0282   148.6     0.8    21.6
    ...
    2016 07 02    19 54 07.8 -18 14 42  39.0537 40.0278   163.1     0.4    21.6
    ...
    2016 07 10    19 53 28.4 -18 16 56  39.0237 40.0275   170.7     0.2    21.5
    ...
    2016 07 16    19 52 58.1 -18 18 41  39.0133 40.0273   176.0     0.1    21.5
    2016 07 17    19 52 53.0 -18 18 59  39.0126 40.0273   176.7     0.1    21.5
    2016 07 18    19 52 47.9 -18 19 17  39.0122 40.0273   177.2     0.1    21.5
    ...
    2016 07 24    19 52 17.5 -18 21 05  39.0156 40.0271   174.6     0.1    21.5
    ...
    2016 08 01    19 51 37.5 -18 23 31  39.0365 40.0268   167.2     0.3    21.5
    ...
    2016 08 16    19 50 27.3 -18 28 01  39.1242 40.0264   152.7     0.7    21.6
    
    A. U. Tomatic                (C) Copyright 2016 MPC           M.P.E.C. 2016-O212
    

    Read MPEC 2016-O211 Read MPEC 2016-O213


    MPEC number:

    Enter an MPEC number in one of the following forms:

    • 1997-B01 (the full form)
    • J97B01 (the packed version of the full form)
    • B01 (the abbreviated form)